Weather in Sholapur

India     17°40′16″N   75°54′24″E
temp.,
°C
wind,
m/s
gust,
m/s
humid.,
%
clouds,
%
prec.,
mm/h
press.,
hPa
HPBL,
m
17 may, mon
mon1723:30+26sse10166799 0.2 1006836
02:30+24sse81372100 0.0 1004830
05:30+24sse71275100 0.0 1005797
08:30+26sse9126698 0.0 10071049
11:30+29s9125685 0.0 10071673
14:30+33ssw10124225 0.0 10042151
17:30+33ssw8113999 0.0 10032514
20:30+31sw61047100 0.0 1005784
18 may, tue
tue1823:30+28sw61158100 0.0 1006574
02:30+26ssw6116756 0.0 1005591
05:30+26ssw6117153 0.0 1005621
08:30+26ssw696974 0.0 1007667
11:30+32ssw894674 0.0 10061581
14:30+35ssw7934100 0.0 10032685
17:30+36ssw7831100 0.0 10022749
20:30+32wsw7849100 0.0 10041018
19 may, wed
wed1923:30+26wsw7977100 0.2 1006510
02:30+27wsw61069100 0.0 1004789
05:30+27ssw456791 0.2 1006477
08:30+28sw556137 0.0 1007742
11:30+31wsw774990 0.0 10061756
14:30+33w884045 0.1 10042144
17:30+34wsw773686 0.1 10032222
20:30+30wsw994954 0.0 1005898
20 may, thu
thu2023:30+28w69599 0.0 1007689
02:30+27w58635 0.0 1006626
05:30+26w366858 0.0 1007403
08:30+29wnw455595 0.0 1009798
11:30+32wnw4440100 0.0 10081486
14:30+31sw554670 0.0 1006679
17:30+34s433295 0.0 10041319
20:30+32ssw573981 0.0 1006444
21 may, fri
fri2123:30+30w58527 0.0 1007332
02:30+28wnw610605 0.0 1006527
05:30+27wnw610655 0.0 1007448
08:30+30nw67517 0.0 1009832
11:30+34nw343443 0.0 10072066
14:30+37wnw332650 0.0 10042947
17:30+38wnw232579 0.2 10022909
20:30+30ese5650100 0.8 1006262